Regional Weather Roundup
Issued by NWS

Home | Current Version | Previous Version | Graphics & Text | Print | Product List | Glossary Off
Versions: 1 2 3 4 5 6 7 8 9 10 11 12 13 14 15 16 17 18 19 20 21 22 23 24 25 26 27 28 29 30 31 32 33 34 35 36 37 38 39 40 41 42 43 44 45 46 47 48 49 50

000
ASUS43 KMKX 221311
RWRWI

WISCONSIN REGIONAL WEATHER ROUNDUP
NATIONAL WEATHER SERVICE MILWAUKEE/SULLIVAN WI
800 AM CDT SAT JUL 22 2017

NOTE: "FAIR" INDICATES FEW OR NO CLOUDS BELOW 12,000 FEET WITH NO
SIGNIFICANT WEATHER AND/OR OBSTRUCTIONS TO VISIBILITY.

WIZ001-002-006>008-014>016-023>028-221400-
NORTHWEST WISCONSIN

CITY           SKY/WX    TMP DP  RH WIND       PRES   REMARKS
SUPERIOR ARPT  NOT AVBL
ASHLAND        MOSUNNY   65  64  97 SW8       29.85R
HAYWARD        MOSUNNY   67  63  87 N3        29.87R
SIREN          CLOUDY    64  64  97 CALM      29.89R FOG
CUMBERLAND     CLOUDY    64  63  94 CALM      29.87S
RICE LAKE      CLOUDY    66  65  97 N5        29.88R
CHETEK         CLOUDY    66  65  96 N3        29.86R
LADYSMITH      CLOUDY    69  65  89 NW6       29.88R
EAU CLAIRE     CLOUDY    68  66  93 CALM      29.82F
MENOMONIE      CLOUDY    68  66  93 CALM      29.83S
NEW RICHMOND   CLOUDY    67  66  97 N9        29.86R
OSCEOLA        CLOUDY    68  68 100 N8        29.91R
$$

WIZ003>005-009-010-017-018-221400-
NORTH CENTRAL WISCONSIN

CITY           SKY/WX    TMP DP  RH WIND       PRES   REMARKS
MANITOWISH WTR CLOUDY    68  68 100 SW5       29.85S
ARBOR VITAE    PTSUNNY   69  68  94 W3        29.86R
WOODRUFF       PTSUNNY   69  68  94 W3        29.86R
RHINELANDER    CLOUDY    65  64  97 CALM      29.87R
EAGLE RIVER    CLOUDY    67  60  79 CALM      29.86R
LAND O LAKES   CLOUDY    70  62  77 CALM      29.88S
PHILLIPS       CLOUDY    66  66 100 W5        29.86R
TOMAHAWK         N/A     65  64  95 CALM      29.86F FOG
MEDFORD        CLOUDY    66  66  98 CALM      29.86S FOG
MERRILL        DRZL/FOG  65  65 100 NE3       29.86R VSB 1
$$

WIZ029-030-035-036-043>047-221400-
CENTRAL WISCONSIN

CITY           SKY/WX    TMP DP  RH WIND       PRES   REMARKS
WAUSAU         FOG       66  66 100 CALM      29.84R VSB 1
MOSINEE        FOG       66  66 100 NE3       29.87R VSB 1/4
MARSHFIELD     CLOUDY    68  67  96 N5        29.84R FOG
STEVENS POINT  CLOUDY    64  64 100 NE3       29.86R FOG
WAUPACA        CLOUDY    70  65  86 CALM      29.84R
WAUTOMA        CLOUDY    66  65  96 N5        29.83S FOG
WISC RAPIDS    FOG       67  66  97 CALM      29.86R VSB 3/4
CAMP DOUGLAS   CLOUDY    68  68 100 CALM      29.83R FOG
$$

WIZ011>013-019>022-031-037>040-048>050-221400-
NORTHEAST WISCONSIN

CITY           SKY/WX    TMP DP  RH WIND       PRES   REMARKS
ANTIGO         CLOUDY    65  63  95 CALM      29.87R
SHAWANO        CLOUDY    70  60  70 CALM      29.84S
OCONTO         CLOUDY    69  64  83 CALM      29.83R
STURGEON BAY     N/A     69  64  84 SE5       29.85R
GREEN BAY      CLOUDY    69  66  90 N3        29.82S
MANITOWOC      CLOUDY    70  64  81 E7        29.83R
APPLETON       CLOUDY    68  57  68 VRB3      29.80F
CLINTONVILLE   CLOUDY    68  59  73 CALM      29.84R
OSHKOSH        CLOUDY    68  63  84 CALM      29.81S
$$

WIZ032>034-041-042-053>061-221400-
SOUTHWEST WISCONSIN

CITY           SKY/WX    TMP DP  RH WIND       PRES   REMARKS
LA CROSSE      CLOUDY    74  70  87 N5        29.81R
SPARTA         CLOUDY    66  66 100 CALM      29.83S FOG
VIROQUA        CLOUDY    68  68 100 N5        29.83R VSB 1/2
BOSCOBEL       CLOUDY    72  71  97 W3        29.80R
PRAIRIE DU CHI CLOUDY    71  69  96 CALM      29.81R
PLATTEVILLE    CLOUDY    71  71 100 CALM      29.82R
$$

WIZ056-057-062-063-064-067-068-221400-
SOUTH CENTRAL WISCONSIN

CITY           SKY/WX    TMP DP  RH WIND       PRES   REMARKS
REEDSBURG      FOG       67  67 100 CALM      29.81R VSB 3/4
BARABOO/DELLS  FOG       67  66  95 CALM      29.81S VSB 1/4
LONE ROCK      CLOUDY    71  69  93 NE5       29.79R
MINERAL POINT  CLOUDY    70  70 100 CALM      29.82R
MADISON        CLOUDY    72  69  90 VRB3      29.79R
MIDDLETON      CLOUDY    72  72 100 CALM      29.80S
WATERTOWN      CLOUDY    69  69 100 CALM      29.80R
MONROE         CLOUDY    70  68  94 CALM      29.81S
JANESVILLE     CLOUDY    70  70 100 CALM      29.79R
$$

WIZ051-052-058>065-066-070>072-221400-
SOUTHEAST WISCONSIN

CITY           SKY/WX    TMP DP  RH WIND       PRES   REMARKS
MILWAUKEE      CLOUDY    73  70  90 NW6       29.79S
WAUKESHA       CLOUDY    70  66  88 W6        29.81S
MILWAUKEE/TIMM CLOUDY    70  64  83 CALM      29.81S
RACINE         CLOUDY    72  69  90 W6        29.81R
KENOSHA        CLOUDY    72  68  87 W6        29.79S
FOND DU LAC    CLOUDY    67  63  87 CALM      29.82R FOG
SHEBOYGAN      CLOUDY    69  68  96 NE3       29.81S FOG
WEST BEND      CLOUDY    64  64 100 NE3       29.81R FOG
JUNEAU         FOG       65  65  99 CALM      29.82R VSB 1/4
$$

LSZ147-162-221400-
LAKE SUPERIOR

STATION/POSITION TIME  TEMP    WIND        PRES    WAVE
                       AIR SEA DIR/SP/G            HT/PER
                 (UTC) (F)     (DEG/KT/KT) (MB)    (FT/S)
W MID LAKE BUOY  1250   50 47   40/ 10/ 12 1009.5R   1/ 4
DEVILS ISLAND    1200   56      10/  6/  7 1010.4R
SAXON HARBOR     1230   65      30/  1/  2 1009.8R
$$

LMZ867-665-643>646-221400-
LAKE MICHIGAN

STATION/POSITION TIME  TEMP    WIND        PRES    WAVE
                       AIR SEA DIR/SP/G            HT/PER
                 (UTC) (F)     (DEG/KT/KT) (MB)    (FT/S)
CHAMBERS ISLAND  1240   70     120/  3/  5 1009.5R
S GREEN BAY BUOY 1300   70 73   90/  2/  4 1010.1
N MID LAKE BUOY  1250   67 66   50/  2/  2 1011.0R   1
NORTHPORT PIER   1240   69     190/  1/  3 1010.2R
KEWAUNEE LAKESHO 1248   69      CALM  /  4 1008.9R
SHEBOYGAN LAKESH 1300   67      30/  1/  1 1009.0R
PORT WASHINGTON  1230   68     300/  3/  4 1009.8F
ATWATER BUOY     1109   68 68  320/  8/ 10 1009.1R
MILWAUKEE LAKESH 1250   70     330/  4/  5   N/A
S MID LAKE BUOY  1250   71 70  320/  6/  6 1008.5R   2/ 5
KENOSHA   LAKESH 1300   72     290/  3/  6 1008.8
$$

TC  - TEMPERATURE IN CELSIUS
VSB - VISIBILITY IN STATUTE MILES
WCI - WIND CHILL INDEX
HX  - HEAT INDEX





USA.gov is the U.S. government's official web portal to all federal, state and local government web resources and services.